[[{"header":{"parameterUnit":"m.s-1","parameterCategory":1,"la1":30.2991,"la2":30.254,"lo1":-89.0895,"lo2":-89.0444,"dy":0.0017,"dx":0.0017,"nx":28,"ny":28,"refTime":"2025-08-18T09:00:00:Z","depth":0,"parameterNumber":2,"parameterNumberName":"U-component_of_WINDS"},"data":[0,0,0,0,0,0,0,0,0,0,0,0,0,0,0,0,0,0,0,0,0,0,0,0,0,0,0,0,0,0,0,0,0,0,0,0,0,0,0,0,0,0,0,0,0,0,0,0,0,0,0,0,0,0,0,0,0,0,-2.0807,-2.0806,0,-2.075,-2.0749,-2.0748,-2.0677,-2.0676,-2.0674,-2.0673,-2.0614,-2.0614,-2.0613,0,0,0,0,0,0,0,0,0,0,0,0,0,-2.0855,-2.0854,-2.0807,-2.0806,-2.0805,-2.075,-2.0749,-2.0748,-2.0677,-2.0676,-2.0674,-2.0673,-2.0614,-2.0614,-2.0613,0,0,0,0,0,0,0,0,0,0,0,0,0,-2.082,-2.0854,-2.0807,-2.0763,-2.0759,-2.075,-2.0749,-2.0748,-2.0677,-2.0676,-2.0674,-2.0672,-2.0614,-2.0614,-2.0613,-2.0642,0,0,-2.0611,-2.061,0,0,0,0,0,0,0,0,-2.0822,-2.0818,-2.077,-2.0766,-2.0761,-2.0719,-2.0744,-2.0712,-2.0678,-2.0708,-2.0673,-2.0671,-2.065,-2.0646,-2.0639,-2.0639,-2.0637,-2.061,-2.061,-2.061,-2.0609,0,0,0,0,0,0,0,-2.0824,-2.082,-2.0784,-2.077,-2.0764,-2.0747,-2.074,-2.0738,-2.0689,-2.0705,-2.07,-2.0694,-2.0647,-2.064,-2.0637,-2.0636,-2.061,-2.061,-2.0609,-2.0609,-2.0659,-2.0661,0,0,0,0,0,0,-2.0833,-2.0822,-2.0786,-2.0782,-2.0788,-2.0747,-2.0739,-2.0734,-2.0689,-2.0681,-2.0696,-2.0691,-2.0642,-2.0638,-2.0635,-2.0667,-2.061,-2.0609,-2.0608,-2.0657,-2.066,-2.0661,0,0,0,0,0,0,-2.0835,-2.0831,-2.0788,-2.0801,-2.0794,-2.0748,-2.0743,-2.0734,-2.0726,-2.0682,-2.0673,-2.0697,-2.0641,-2.0636,-2.0641,-2.0664,-2.0609,-2.0608,-2.0655,-2.0658,-2.066,-2.0732,0,0,0,0,0,0,-2.0836,-2.0832,-2.0842,-2.0802,-2.0794,-2.0796,-2.0744,-2.0734,-2.0725,-2.0719,-2.0681,-2.0673,-2.0639,-2.0643,-2.0641,-2.0662,-2.0607,-2.0653,-2.0656,-2.066,-2.0727,-2.0736,-2.0745,0,0,0,0,0,-2.0838,-2.0864,-2.0843,-2.0839,-2.0806,-2.0797,-2.0792,-2.0753,-2.0728,-2.0738,-2.071,-2.0674,-2.0662,-2.0644,-2.0641,-2.0662,-2.0651,-2.0655,-2.0659,-2.0723,-2.0735,-2.0744,0,0,0,0,0,0,-2.0907,-2.0857,-2.0834,-2.0847,-2.0827,-2.0785,-2.0796,-2.0766,-2.0752,-2.0747,-2.0698,-2.069,-2.0702,-2.0682,-2.0663,-2.0689,-2.0652,-2.0655,-2.0701,-2.0712,-2.072,-2.0725,-2.0607,0,0,0,0,0,-2.0924,-2.0921,-2.0878,-2.0893,-2.0885,-2.0843,-2.0837,-2.0809,-2.0786,-2.0777,-2.0749,-2.0728,-2.0719,-2.0714,-2.0704,-2.0724,-2.0716,-2.0738,-2.0747,-2.0754,-2.0757,-2.0768,-2.0778,-2.0675,-2.0675,-2.0675,0,0,-2.0958,-2.0931,-2.0931,-2.0907,-2.0888,-2.0886,-2.0836,-2.0835,-2.0834,-2.0776,-2.078,-2.0759,-2.0733,-2.0746,-2.075,-2.073,-2.0784,-2.0759,-2.0765,-2.0765,-2.0773,-2.0783,-2.0792,-2.0677,-2.0677,-2.0677,0,0,-2.1019,-2.0999,-2.101,-2.0992,-2.0965,-2.0937,-2.094,-2.0903,-2.0887,-2.089,-2.0848,-2.0845,-2.0831,-2.0815,-2.0804,-2.0863,-2.083,-2.0861,-2.0906,-2.0917,-2.0925,-2.0932,-2.0954,-2.0962,-2.0865,-2.0865,-2.0865,0,-2.1065,-2.1061,-2.102,-2.1023,-2.1013,-2.0963,-2.0974,-2.0959,-2.093,-2.0925,-2.0903,-2.0886,-2.0864,-2.0874,-2.0888,-2.0881,-2.0884,-2.0864,-2.0927,-2.0934,-2.094,-2.096,-2.0968,-2.0869,-2.0868,-2.0868,-2.0867,0,-2.1119,-2.1117,-2.113,-2.1104,-2.1096,-2.1103,-2.1063,-2.1061,-2.1034,-2.1009,-2.1013,-2.0986,-2.097,-2.097,-2.0943,-2.0977,-2.0965,-2.0936,-2.0897,-2.0954,-2.0972,-2.098,-2.0874,-2.0873,-2.0872,-2.0871,0,0,-2.1221,-2.1173,-2.1178,-2.1167,-2.1133,-2.1131,-2.1137,-2.1122,-2.1121,-2.1103,-2.1107,-2.1098,-2.1071,-2.106,-2.1031,-2.1041,-2.109,-2.101,-2.1009,-2.1027,-2.1126,-2.1148,-2.1157,-2.1069,-2.107,-2.1071,-2.1128,0,-2.1276,-2.1283,-2.1247,-2.1264,-2.1262,-2.1215,-2.122,-2.1201,-2.1179,-2.1174,-2.1149,-2.1143,-2.1108,-2.1101,-2.1109,-2.1082,-2.1109,-2.1078,-2.1072,-2.1073,-2.108,-2.1167,-2.1189,-2.1245,-2.1135,-2.1136,-2.1137,0,-2.1341,-2.1328,-2.1345,-2.1313,-2.1311,-2.1316,-2.13,-2.1296,-2.1274,-2.1257,-2.1246,-2.1213,-2.1217,-2.1181,-2.1187,-2.1166,-2.1162,-2.1149,-2.115,-2.1148,-2.1108,-2.1167,-2.1261,-2.127,-2.1148,-2.1147,-2.1146,0,-2.1414,-2.14,-2.1409,-2.14,-2.1363,-2.1368,-2.1353,-2.1329,-2.1323,-2.1309,-2.1305,-2.1292,-2.1285,-2.1277,-2.1242,-2.1218,-2.1252,-2.1212,-2.1238,-2.1239,-2.1247,-2.1247,-2.1342,-2.1245,-2.1245,-2.1244,-2.1244,0,-2.148,-2.1492,-2.1442,-2.1447,-2.146,-2.1419,-2.1433,-2.1413,-2.1393,-2.1394,-2.1352,-2.1354,-2.1309,-2.1306,-2.1279,-2.1288,-2.1285,-2.1272,-2.1265,-2.1275,-2.1277,-2.1272,-2.1267,-2.1247,-2.1246,-2.1246,-2.1245,0,-2.1563,-2.1529,-2.1536,-2.1501,-2.1492,-2.1503,-2.1473,-2.1477,-2.1453,-2.1455,-2.1453,-2.1415,-2.141,-2.1375,-2.1361,-2.1343,-2.1363,-2.1348,-2.137,-2.1365,-2.1393,-2.1391,-2.1488,-2.1499,-2.1395,-2.1396,-2.1397,0,-2.1606,-2.1615,-2.1581,-2.1579,-2.1566,-2.1563,-2.1558,-2.1518,-2.1514,-2.1491,-2.1498,-2.149,-2.1481,-2.1475,-2.1446,-2.1436,-2.1421,-2.1455,-2.1419,-2.143,-2.1422,-2.1421,-2.1423,-2.1463,-2.1464,-2.1465,-2.1466,0,-2.1688,-2.1671,-2.1665,-2.1653,-2.1647,-2.1636,-2.1622,-2.1623,-2.158,-2.1577,-2.1572,-2.1565,-2.1553,-2.1545,-2.1531,-2.1515,-2.1484,-2.1478,-2.1484,-2.1495,-2.1508,-2.1502,-2.1392,-2.1476,-2.1475,-2.1474,-2.1474,-2.1473,-2.1752,-2.1758,-2.1736,-2.1731,-2.1716,-2.1705,-2.1707,-2.1684,-2.1679,-2.1666,-2.1643,-2.1642,-2.1621,-2.1599,-2.1586,-2.1585,-2.1566,-2.1574,-2.1576,-2.1578,-2.1585,-2.1509,-2.1582,-2.1581,-2.1581,-2.1581,-2.1581,0,-2.1832,-2.1816,-2.1811,-2.1794,-2.179,-2.1762,-2.1746,-2.1744,-2.1743,-2.1727,-2.172,-2.1715,-2.1708,-2.168,-2.167,-2.1675,-2.166,-2.1673,-2.1672,-2.167,-2.1601,-2.1598,-2.1685,-2.1685,-2.1685,-2.1685,-2.1685,-2.1685,-2.1873,-2.1882,-2.1864,-2.1866,-2.185,-2.1848,-2.1841,-2.1831,-2.1818,-2.1814,-2.1809,-2.1791,-2.177,-2.1759,-2.1752,-2.1744,-2.1743,-2.1761,-2.1748,-2.1684,-2.1674,-2.1665,-2.1661,-2.1761,-2.1761,-2.1817,-2.1817,-2.1817]},{"header":{"parameterUnit":"m.s-1","parameterCategory":1,"la1":30.2991,"la2":30.254,"lo1":-89.0895,"lo2":-89.0444,"dy":0.0017,"dx":0.0017,"nx":28,"ny":28,"refTime":"2025-08-18T09:00:00:Z","depth":0,"parameterNumber":3,"parameterNumberName":"V-component_of_WINDS"},"data":[0,0,0,0,0,0,0,0,0,0,0,0,0,0,0,0,0,0,0,0,0,0,0,0,0,0,0,0,0,0,0,0,0,0,0,0,0,0,0,0,0,0,0,0,0,0,0,0,0,0,0,0,0,0,0,0,0,0,1.6585,1.6585,0,1.6588,1.6588,1.6588,1.6606,1.6607,1.6607,1.6607,1.6609,1.6609,1.6609,0,0,0,0,0,0,0,0,0,0,0,0,0,1.6591,1.6591,1.6585,1.6585,1.6585,1.6588,1.6588,1.6588,1.6606,1.6607,1.6607,1.6608,1.661,1.6609,1.6609,0,0,0,0,0,0,0,0,0,0,0,0,0,1.6591,1.659,1.6585,1.6594,1.6595,1.6588,1.6588,1.6588,1.6606,1.6607,1.6607,1.6608,1.661,1.6609,1.6609,1.6593,0,0,1.6607,1.6607,0,0,0,0,0,0,0,0,1.6591,1.659,1.6593,1.6593,1.6594,1.6598,1.6591,1.659,1.6606,1.6602,1.6607,1.6608,1.6605,1.6605,1.6604,1.6593,1.6593,1.6607,1.6607,1.6606,1.6606,0,0,0,0,0,0,0,1.6591,1.659,1.6586,1.6593,1.6594,1.6597,1.6598,1.6591,1.66,1.6602,1.6603,1.6604,1.6605,1.6604,1.6604,1.6593,1.6607,1.6607,1.6606,1.6606,1.6567,1.6567,0,0,0,0,0,0,1.659,1.659,1.6586,1.6586,1.6594,1.6597,1.6598,1.6596,1.66,1.6601,1.6603,1.6605,1.6605,1.6605,1.6604,1.6584,1.6607,1.6606,1.6606,1.6568,1.6567,1.6566,0,0,0,0,0,0,1.659,1.6589,1.6586,1.6589,1.6588,1.6596,1.6594,1.6596,1.6595,1.6601,1.6602,1.6601,1.6605,1.6605,1.6595,1.6585,1.6606,1.6605,1.6569,1.6568,1.6567,1.6546,0,0,0,0,0,0,1.659,1.6589,1.6583,1.6588,1.6588,1.6577,1.6593,1.6595,1.6594,1.6596,1.6599,1.66,1.6606,1.6596,1.6595,1.6584,1.6605,1.657,1.6568,1.6567,1.6547,1.6544,1.6541,0,0,0,0,0,1.659,1.6577,1.6583,1.6582,1.6582,1.6577,1.6577,1.6584,1.6593,1.6587,1.6591,1.66,1.6587,1.6595,1.6594,1.6583,1.657,1.6569,1.6567,1.6549,1.6544,1.6541,0,0,0,0,0,0,1.657,1.6578,1.6585,1.6573,1.6574,1.658,1.6572,1.658,1.6578,1.658,1.6589,1.659,1.6578,1.658,1.6589,1.6567,1.658,1.6578,1.6566,1.6562,1.6559,1.6558,1.6604,0,0,0,0,0,1.6565,1.6561,1.6568,1.6557,1.6557,1.6565,1.6563,1.6569,1.657,1.657,1.6573,1.6573,1.6569,1.6566,1.6563,1.6548,1.6548,1.654,1.6537,1.6535,1.6532,1.6523,1.6519,1.6561,1.6561,1.6561,0,0,1.6553,1.6557,1.6554,1.6553,1.6555,1.6549,1.6565,1.6559,1.6555,1.6569,1.656,1.6562,1.6563,1.655,1.6545,1.6551,1.6521,1.6533,1.653,1.6529,1.6521,1.6516,1.6513,1.656,1.656,1.656,0,0,1.6529,1.6532,1.6523,1.6524,1.6526,1.6531,1.6529,1.6533,1.6535,1.6526,1.6537,1.6532,1.6525,1.6524,1.6523,1.6498,1.6505,1.6497,1.648,1.6471,1.6467,1.6464,1.6454,1.645,1.6495,1.6495,1.6495,0,1.6513,1.6506,1.6517,1.651,1.6508,1.6522,1.6512,1.6513,1.6513,1.6512,1.652,1.651,1.6512,1.6498,1.6492,1.6492,1.6488,1.6496,1.6467,1.6464,1.6462,1.6451,1.6448,1.6494,1.6494,1.6494,1.6494,0,1.6487,1.6482,1.6474,1.6474,1.6473,1.6464,1.6472,1.6469,1.6476,1.6479,1.6469,1.6472,1.6468,1.6466,1.6472,1.6453,1.6457,1.6466,1.6478,1.6456,1.6447,1.6443,1.6492,1.6492,1.6493,1.6493,0,0,1.6449,1.6456,1.6452,1.6452,1.6456,1.6451,1.6443,1.644,1.6437,1.6437,1.6429,1.6423,1.6431,1.643,1.6436,1.6428,1.6406,1.6438,1.6438,1.643,1.6382,1.6374,1.6369,1.6411,1.6411,1.641,1.6381,0,1.6424,1.6411,1.642,1.6404,1.6399,1.6412,1.6405,1.6405,1.6409,1.6404,1.6408,1.6403,1.6415,1.6414,1.6407,1.641,1.6396,1.6412,1.6402,1.6402,1.64,1.6364,1.6356,1.6328,1.6378,1.6377,1.6377,0,1.6393,1.6392,1.6376,1.6379,1.6377,1.6371,1.6368,1.6364,1.6365,1.6368,1.6366,1.6375,1.6365,1.638,1.6366,1.6377,1.6374,1.6375,1.6374,1.6371,1.6386,1.6359,1.632,1.6315,1.6371,1.6372,1.6372,0,1.6364,1.6359,1.6348,1.6348,1.6353,1.6347,1.6349,1.635,1.6348,1.6346,1.6344,1.6341,1.6338,1.6335,1.6341,1.6351,1.6326,1.6341,1.6327,1.6327,1.6319,1.6319,1.6277,1.6321,1.6321,1.6321,1.6321,0,1.6334,1.6323,1.6335,1.6328,1.6316,1.6327,1.6315,1.6317,1.6319,1.6312,1.6324,1.6317,1.6327,1.6321,1.6326,1.6313,1.6312,1.6313,1.6314,1.6311,1.631,1.6307,1.6308,1.632,1.632,1.632,1.6321,0,1.6299,1.6307,1.6296,1.6301,1.6302,1.6293,1.6297,1.629,1.6295,1.6286,1.6285,1.6292,1.6285,1.6292,1.6286,1.6289,1.6271,1.6276,1.627,1.6271,1.6255,1.6256,1.6207,1.6201,1.6251,1.6251,1.625,0,1.6278,1.627,1.6274,1.6271,1.6272,1.6267,1.6264,1.6274,1.6271,1.6271,1.6264,1.6258,1.6254,1.6242,1.6246,1.6241,1.6244,1.6228,1.6243,1.624,1.6241,1.6241,1.6239,1.6224,1.6223,1.6223,1.6222,0,1.6239,1.6243,1.624,1.6237,1.6234,1.6232,1.6231,1.6228,1.6238,1.6233,1.6227,1.6224,1.6218,1.6211,1.6207,1.6208,1.6216,1.6218,1.6214,1.6209,1.6205,1.6205,1.6259,1.6218,1.6219,1.6219,1.6219,1.6219,1.6209,1.6202,1.6204,1.6199,1.62,1.6198,1.6192,1.6196,1.6191,1.6187,1.6193,1.6185,1.6185,1.618,1.618,1.6172,1.6179,1.6174,1.6172,1.617,1.6166,1.6208,1.6172,1.6172,1.6172,1.6172,1.6172,0,1.6169,1.6171,1.6166,1.6165,1.6161,1.6171,1.617,1.6165,1.6158,1.6158,1.6154,1.6145,1.6139,1.6143,1.6137,1.613,1.6134,1.6128,1.6127,1.6127,1.6162,1.6165,1.6125,1.6125,1.6125,1.6125,1.6125,1.6125,1.6147,1.6135,1.614,1.6128,1.613,1.6122,1.612,1.6119,1.6119,1.6109,1.6104,1.6107,1.6108,1.6102,1.6096,1.6097,1.6094,1.6086,1.6088,1.612,1.6125,1.6129,1.6132,1.6086,1.6086,1.6054,1.6053,1.6053]}]]